Location: Unspecified
(52.4292°N, 19.3359°E)
Time: 09:42:49
(UTC+02:00)

Tiros 1 - Pass Details

Date: 21 May 2024
Orbit: 624 x 657 km, 48.4° (Epoch: 22 June)

Event Time Altitude Azimuth Distance (km) Brightness Sun altitude
Rises 18:33:26 0° 277° (W) 2,981 12.3 16.9°
Reaches altitude 10° 18:36:17 10° 261° (W) 2,064 11.3 16.5°
Maximum altitude 18:39:43 20° 214° (SW) 1,499 9.4 16.0°
Drops below altitude 10° 18:43:09 10° 167° (SSE) 2,046 9.5 15.5°
Sets 18:45:58 0° 151° (SSE) 2,947 10.1 15.0°
